Погода Новая Ладога

Погода Новая Ладога : погода сейчас, прогноз погоды и архив. Всё, что Вы хотите узнать о погоде Новая Ладога!

Хотите узнать прогноз погоды Новая Ладога? Тогда Вам сюда: Погода Новая Ладога

Поиск расширенной информации на нашем сайте:

Другие новости

Новости СМИ2

Главная страница сайта

Новости сайта

03.07.2017

Напоминаем, что на нашем специализированном сайте Метеоцентр.Азия вы можете получить высокодетализированные автоматические прогнозы погоды по пунктам России, СНГ и мира в авиационном формате (включающие направление и скорость ветра, видимость, явления погоды, количество и форму облачности, нижнюю и верхнюю границу облачности).


Погода Новая Ладога - сегодня

Время (UTC), дата Ветер
(°,м/с) 
Видим.   Явления Облачность Т
(°С)
Тd
(°С)
f(%) Тe
(°С)
Pmin
(гПа)
dP
(гПа)
Po
(мм)
O2
(г/м3)
Тmin Tmax R s Состояние
почвы
18 09.02.18 тихо ()   20000 м  слаб. ливневой снег  10/10 270 м кучево-дожд. 
[Cb cap]
-5 -6.1 92 -5  1024.4  767  316    -3.8  0.0     
03 10.02.18 120 (ЮВ) 4000 м  слаб. ливневой снег  10/10 540 м кучево-дожд. 
[Cb cap]
-5.4 -5.9 96 -5  1024  -0.5  767  316  -5.4       
03 11.02.18 140 (ЮВ) 20000 м    10/10 300 м 
[St]
-5.9 -6.8 93 -6  1018.4  -0.7  763  315  -5.9    0.0     
09 11.02.18 160 (Ю) 20000 м    10/0 средняя 
[Ac und]
-4.1 -5.7 89 -5  1017.6  0.1  762  313           
12 11.02.18 130 (ЮВ) 20000 м    10/0 средняя 
[Ac und]
-3 -5.1 85 -4  1016.4  -1.2  761  311           
03 12.02.18 160 (Ю) 10 км  слаб. ливневой снег  10/10 570 м кучево-дожд. 
[Cb cap]
-2.1 -3.7 89 -5  1015.1  761  309  -3.1    0.6     
21 12.02.18 160 (Ю) 20000 м    9/9 1260 м 
[Sc]
-2.2 -3.8 89 -5  1019.3  1.1  764  311           
00 13.02.18 160 (Ю) 20000 м    4/4 1000 м 
[Sc]
-2.9 -4.4 89 -4  1019.5  0.2  764  312           
03 13.02.18 160 (Ю) 20000 м    9/9 1020 м 
[Sc]
-2.4 -4.1 88 -4  1020.1  0.6  764  311  -2.9         
09 13.02.18 160 (Ю) 20000 м    9/0 средняя, верхняя 
[Ac lent|Ci fib]
-2.1 -5.8 76 -5  1021.4  0.6  765  311           
12 13.02.18 170 (Ю) 20000 м    5/0 средняя, верхняя 
[Ac lent|Ci fib]
-1.8 -8.2 62 -5  1021.7  0.3  765  311           
15 13.02.18 150 (ЮВ) 20000 м    3/0 средняя, верхняя 
[Ac lent|Ci fib]
-3.2 -9.7 61 -4  1022.5  0.7  766  313           
18 13.02.18 180 (Ю) 20000 м    ясно 
-4.6 -9.4 69 -7  1023.8  1.3  767  315    -1.5       
21 13.02.18 150 (ЮВ) 20000 м    ясно 
-7.3 -10 81 -9  1025  1.2  768  319           
00 14.02.18 160 (Ю) 20000 м    ясно 
-8.4 -10.3 86 -11  1025.7  0.7  768  320           
09 14.02.18 190 (Ю) 20000 м    5/0 средняя, верхняя 
[Ac lent|Ci fib]
-7.7 -10.4 81 -11  1029.5  1.6  771  321           
12 14.02.18 170 (Ю) 20000 м    4/0 средняя, верхняя 
[Ac lent|Ci sp]
-4.7 -9.4 70 -6  1029.7  0.3  771  317           
15 14.02.18 140 (ЮВ) 20000 м    9/0 средняя, верхняя 
[Ac lent|Ci sp]
-5.6 -9.9 72 -5  1030.3  0.6  772  319           
21 14.02.18 150 (ЮВ) 20000 м    3/0 верхняя 
[Ci sp]
-9.9 -11.8 86 -10  1032.3  0.8  773  325           
00 15.02.18 140 (ЮВ) 20000 м    3/0 верхняя 
[Ci sp]
-11.2 -12.4 91 -13  1032.7  0.4  774  326           
09 15.02.18 150 (ЮВ) 20000 м    4/0 средняя, верхняя 
[Ac lent|Ci fib]
-9.5 -12 82 -11  1033.6  0.2  774  324           
12 15.02.18 190 (Ю) 20000 м    3/0 верхняя 
[Ci fib]
-6.6 -10.2 76 -9  1032.8  -0.8  774  321           
15 15.02.18 130 (ЮВ) 20000 м    8/0 средняя, верхняя 
[Ac lent|Ci fib]
-8.9 -11.2 83 -9  1032.3  -0.5  773  323           
03 16.02.18 150 (ЮВ) 4000 м  слаб. ливневой снег  10/10 300 м кучево-дожд. 
[Cb cap]
-8.2 -9.1 93 -8  1028  -1.5  770  321  -10.9       
03 17.02.18 100 (В) 10 км  слаб. ливневой снег  9/9 300 м кучево-дожд. 
[Cb cap]
-6.8 -7.4 95 -6  1023.5  -1.1  767  318  -6.8    0.5     
Время (UTC), дата Ветер
(°,м/с) 
Видим.   Явления Облачность Т
(°С)
Тd
(°С)
f(%) Тe
(°С)
Pmin
(гПа)
dP
(гПа)
Po
(мм)
O2
(г/м3)
Тmin Tmax R s Состояние
почвы

Для получения пояснительной информации подведите курсор к названию столбца.

ПОГОДА Новая Ладога - архив

Всё, что Вы хотите узнать о погоде Новая Ладога - удобно и подробно!

Выберите нужную дату (начиная с 1 января 2015* года) и нажмите кнопку "Найти".
Будут отображены архивные сводки погоды по пункту Новая Ладога, начиная с указанной даты.


Отображать данные в формате CSV (для использования в таблицах Excel)


Внимание! Наш архив погоды предназначен исключительно для личного некоммерческого использования в познавательных целях. Если Вам необходимы официальные справки о состоянии погоды (для производственных, юридических, коммерческих и т.п. целей), обращайтесь в органы Росгидромета.

*Примечание: данная дата относится к архиву по метеостанциям СССР (Россия, СНГ, Балтия).
Архив по метеостанциям Зарубежной Европы и Азии (кроме Китая) хранится 10 дней, по другим регионам земного шара (Китай, Африка, Америка, Австралия, Океания) - 1 день.

Новая Ладога - район местоположения метеостанции


Название, широта, долгота, высота метеостанции:
Новая Ладога 60.1°ш. 32.3°д. 9 м над ур. моря [Российская Федерация]

Дополнительная информация

В oтличие oт бoльшинства пoгoдных сайтoв мы публикуем пoдрoбную метеoинфoрмацию в детальнoм прoфессиoнальнoм фoрмате.

Характеристики температуры и влажнoсти вoздуха измеряются на высoте 2 м в тени вдали oт зданий и деревьев.
Скoрoсть ветра измеряется на высoте 10 м (на урoвне рoста челoвека скoрoсть ветра ниже в 1.5-2 раза). Если метеoстанция нахoдится в гoрoде или в лесу, тo скoрoсть ветра занижена на 2-4 м/с пo сравнению с oткрытым местoм. Скoрoсть ветра над акватoриями крупных рек и oзёр, а также на вершинах хoлмoв на 2-5 м/с выше, чем в oбычных услoвиях.
Атмoсфернoе давление в разных тoчках местнoсти мoжет значительнo oтличаться oт давления на метеoстанции, в зависимoсти oт услoвий рельефа (при пoдъёме на 10 м давление пoнижается примернo на 1 мм рт.ст.).